N6ABM Weather Reports


time (UTC)temp
F
wind
direction
speed
knots
gust
knots
rain 1hr
in
rain 24hr
in
rain mn
in
humidity
%
barometer
mb
20260502162016 86 44 6.1 13.0 0.00 0.00 0.00 22 1015.0
20260502161517 85 38 7.0 14.8 0.00 0.00 0.00 23 1014.9
20260502161016 85 44 7.0 15.6 0.00 0.00 0.00 23 1014.9
20260502160517 84 44 7.8 19.1 0.00 0.00 0.00 24 1014.9
20260502152016 82 3 8.7 17.4 0.00 0.00 0.00 24 1014.6
20260502151516 81 45 7.8 13.9 0.00 0.00 0.00 24 1014.6
20260502151017 81 100 7.8 18.2 0.00 0.00 0.00 24 1014.6
20260502150516 80 6 7.8 18.2 0.00 0.00 0.00 24 1014.6
20260502130516 65 35 0.0 0.0 0.00 0.00 0.00 34 1013.3
20260502123516 66 83 0.0 0.0 0.00 0.00 0.00 33 1012.9
20260502123017 66 84 0.0 0.0 0.00 0.00 0.00 33 1012.8
20260502122516 66 28 0.0 0.0 0.00 0.00 0.00 33 1012.8
20260502122017 66 28 0.0 0.0 0.00 0.00 0.00 32 1012.7
20260502121517 66 44 0.0 0.0 0.00 0.00 0.00 32 1012.7
20260502121016 66 44 0.0 0.0 0.00 0.00 0.00 32 1012.7
20260502120516 66 44 0.0 0.0 0.00 0.00 0.00 32 1012.7
20260502115517 66 34 1.7 3.5 0.00 0.00 0.00 30 1012.6
20260502115017 66 30 0.9 2.6 0.00 0.00 0.00 31 1012.6
20260502114516 66 44 0.0 1.7 0.00 0.00 0.00 32 1012.6
20260502114017 66 56 0.0 1.7 0.00 0.00 0.00 31 1012.6
20260502113517 67 57 0.9 2.6 0.00 0.00 0.00 32 1012.5
20260502113016 67 59 0.9 2.6 0.00 0.00 0.00 31 1012.5
20260502112516 67 54 0.0 1.7 0.00 0.00 0.00 32 1012.5
20260502112017 67 56 0.0 1.7 0.00 0.00 0.00 31 1012.5
20260502111517 68 20 0.0 0.0 0.00 0.00 0.00 31 1012.5
20260502111016 68 20 0.0 0.0 0.00 0.00 0.00 31 1012.4
20260502110517 68 19 0.0 0.0 0.00 0.00 0.00 32 1012.4
20260502110016 68 19 0.0 0.0 0.00 0.00 0.00 31 1012.4
20260502105516 69 20 0.0 0.0 0.00 0.00 0.00 30 1012.3
20260502105018 69 19 0.0 0.0 0.00 0.00 0.00 29 1012.3
20260502104517 69 20 0.0 0.0 0.00 0.00 0.00 30 1012.2
20260502104016 69 19 0.0 0.0 0.00 0.00 0.00 29 1012.2
20260502103517 69 19 0.0 0.0 0.00 0.00 0.00 29 1012.2
20260502103016 70 19 0.0 0.0 0.00 0.00 0.00 29 1012.1
20260502102516 70 20 0.0 0.0 0.00 0.00 0.00 28 1012.1
20260502102017 70 19 0.0 0.0 0.00 0.00 0.00 28 1012.1
20260502101517 70 21 0.0 2.6 0.00 0.00 0.00 27 1012.0
20260502101017 70 19 0.9 2.6 0.00 0.00 0.00 27 1012.0
20260502100517 70 39 1.7 3.5 0.00 0.00 0.00 27 1012.0
20260502091516 73 46 5.2 8.7 0.00 0.00 0.00 24 1011.7
20260502091017 73 43 7.0 9.6 0.00 0.00 0.00 24 1011.7
20260502090517 72 55 7.8 10.4 0.00 0.00 0.00 23 1011.8
20260502071517 71 60 0.0 0.0 0.00 0.00 0.00 27 1011.1
20260502071016 71 61 0.0 0.0 0.00 0.00 0.00 27 1011.1
20260502070516 72 58 0.0 0.0 0.00 0.00 0.00 26 1011.1
20260502070017 72 57 0.9 5.2 0.00 0.00 0.00 25 1011.0
20260502065517 72 60 1.7 5.2 0.00 0.00 0.00 26 1011.0
20260502065017 72 66 1.7 5.2 0.00 0.00 0.00 27 1011.0
20260502064516 72 65 0.9 3.5 0.00 0.00 0.00 27 1011.0
20260502064017 72 132 1.7 7.8 0.00 0.00 0.00 25 1011.0
20260502063516 72 101 2.6 7.8 0.00 0.00 0.00 25 1010.9
20260502063017 72 45 0.9 5.2 0.00 0.00 0.00 27 1010.9
20260502062517 72 51 0.0 1.7 0.00 0.00 0.00 28 1010.8
20260502062017 72 11 0.0 0.0 0.00 0.00 0.00 28 1010.8
20260502061517 73 13 0.0 0.0 0.00 0.00 0.00 28 1010.8
20260502061016 73 15 0.0 0.0 0.00 0.00 0.00 27 1010.7
20260502060516 73 14 0.0 0.0 0.00 0.00 0.00 26 1010.7
20260502060016 73 15 0.0 0.0 0.00 0.00 0.00 26 1010.6
20260502055516 73 18 0.0 0.0 0.00 0.00 0.00 26 1010.6
20260502055017 74 22 0.0 0.0 0.00 0.00 0.00 25 1010.6
20260502054516 74 16 0.0 0.0 0.00 0.00 0.00 26 1010.5
20260502054016 74 13 0.0 0.0 0.00 0.00 0.00 25 1010.5
20260502053517 75 14 0.0 0.0 0.00 0.00 0.00 25 1010.5
20260502053017 75 15 0.0 0.0 0.00 0.00 0.00 25 1010.4
20260502052517 75 12 0.0 0.0 0.00 0.00 0.00 25 1010.4
20260502052017 75 12 0.0 0.0 0.00 0.00 0.00 26 1010.4
20260502051517 75 15 0.0 0.0 0.00 0.00 0.00 25 1010.3
20260502051016 76 16 0.0 0.0 0.00 0.00 0.00 24 1010.3
20260502050517 76 13 0.0 0.0 0.00 0.00 0.00 24 1010.3
20260502050016 76 11 0.0 0.0 0.00 0.00 0.00 23 1010.3
20260502045517 76 40 0.0 0.0 0.00 0.00 0.00 22 1010.3
20260502045017 77 44 0.0 0.0 0.00 0.00 0.00 22 1010.2
20260502044516 77 37 0.0 0.0 0.00 0.00 0.00 22 1010.2
20260502044016 77 60 0.0 0.0 0.00 0.00 0.00 22 1010.2
20260502043516 77 61 0.0 0.0 0.00 0.00 0.00 23 1010.1
20260502043016 78 56 0.0 0.0 0.00 0.00 0.00 23 1010.1
20260502042516 78 61 0.0 0.0 0.00 0.00 0.00 22 1010.0
20260502042017 78 78 0.0 0.0 0.00 0.00 0.00 23 1010.0
20260502041517 78 56 0.9 4.3 0.00 0.00 0.00 23 1009.9
20260502041016 79 74 1.7 4.3 0.00 0.00 0.00 22 1009.9
20260502040516 79 64 0.9 3.5 0.00 0.00 0.00 22 1009.8
20260502040017 79 57 0.0 3.5 0.00 0.00 0.00 22 1009.8
20260502035517 79 47 0.9 4.3 0.00 0.00 0.00 23 1009.7
20260502035017 80 70 0.9 4.3 0.00 0.00 0.00 23 1009.7
20260502034516 80 70 1.7 6.1 0.00 0.00 0.00 23 1009.6
20260502034017 80 70 2.6 6.1 0.00 0.00 0.00 22 1009.6
20260502033517 80 83 1.7 3.5 0.00 0.00 0.00 22 1009.5
20260502033017 80 83 1.7 3.5 0.00 0.00 0.00 21 1009.4
20260502032517 81 95 1.7 5.2 0.00 0.00 0.00 20 1009.4
20260502032017 81 97 1.7 5.2 0.00 0.00 0.00 21 1009.3
20260502031517 81 50 1.7 4.3 0.00 0.00 0.00 22 1009.2
20260502031017 81 102 1.7 4.3 0.00 0.00 0.00 22 1009.2
20260502030517 82 70 1.7 6.1 0.00 0.00 0.00 21 1009.1
20260502030016 82 74 3.5 7.0 0.00 0.00 0.00 20 1009.1
20260502025516 82 79 2.6 7.0 0.00 0.00 0.00 20 1009.0
20260502025016 83 109 1.7 5.2 0.00 0.00 0.00 20 1009.0
20260502024516 83 77 2.6 5.2 0.00 0.00 0.00 20 1008.9
20260502024016 83 96 3.5 5.2 0.00 0.00 0.00 19 1008.9
20260502023516 83 93 3.5 7.8 0.00 0.00 0.00 19 1008.8
20260502023017 84 108 4.3 7.8 0.00 0.00 0.00 18 1008.8
20260502022517 84 104 4.3 7.8 0.00 0.00 0.00 18 1008.7
20260502022016 84 89 5.2 11.3 0.00 0.00 0.00 18 1008.7
20260502021516 84 60 7.0 11.3 0.00 0.00 0.00 18 1008.7
20260502021017 84 88 6.1 10.4 0.00 0.00 0.00 18 1008.6
20260502020517 85 94 6.1 10.4 0.00 0.00 0.00 18 1008.6
20260502020016 85 116 6.1 10.4 0.00 0.00 0.00 18 1008.6
20260502015516 85 84 3.5 8.7 0.00 0.00 0.00 18 1008.6
20260502015017 85 59 3.5 8.7 0.00 0.00 0.00 19 1008.6
20260502014517 86 99 4.3 8.7 0.00 0.00 0.00 18 1008.6
20260502014016 86 87 4.3 7.0 0.00 0.00 0.00 18 1008.6
20260502013517 86 117 5.2 11.3 0.00 0.00 0.00 18 1008.6
20260502013016 86 119 7.0 11.3 0.00 0.00 0.00 17 1008.6
20260502012517 86 91 5.2 10.4 0.00 0.00 0.00 17 1008.6
20260502012017 87 113 3.5 7.8 0.00 0.00 0.00 18 1008.6
20260502011517 87 199 3.5 9.6 0.00 0.00 0.00 17 1008.6
20260502011016 87 130 4.3 9.6 0.00 0.00 0.00 17 1008.6
20260502010516 87 144 5.2 10.4 0.00 0.00 0.00 17 1008.7
20260502010017 88 182 6.1 12.2 0.00 0.00 0.00 18 1008.7
20260502005517 88 117 5.2 12.2 0.00 0.00 0.00 17 1008.7
20260502005016 88 126 4.3 9.6 0.00 0.00 0.00 17 1008.7
20260502004516 88 146 5.2 9.6 0.00 0.00 0.00 17 1008.7
20260502004017 89 219 7.0 12.2 0.00 0.00 0.00 17 1008.7
20260502003517 89 120 7.0 12.2 0.00 0.00 0.00 17 1008.7
20260502003017 89 154 7.0 12.2 0.00 0.00 0.00 18 1008.7
20260502002516 89 78 8.7 13.9 0.00 0.00 0.00 18 1008.7
20260502002017 89 71 6.1 13.9 0.00 0.00 0.00 18 1008.8
20260502001516 89 172 2.6 6.1 0.00 0.00 0.00 18 1008.8
20260502001017 89 79 4.3 13.0 0.00 0.00 0.00 18 1008.8
20260502000517 89 215 5.2 14.8 0.00 0.00 0.00 17 1008.9
20260502000017 89 72 5.2 14.8 0.00 0.00 0.00 18 1008.9
20260501235517 89 192 5.2 11.3 0.00 0.00 0.00 17 1008.9
20260501235016 89 214 4.3 10.4 0.00 0.00 0.00 18 1009.0
20260501234516 90 110 7.0 15.6 0.00 0.00 0.00 18 1009.0
20260501234016 90 91 10.4 15.6 0.00 0.00 0.00 17 1009.0
20260501233517 90 120 8.7 14.8 0.00 0.00 0.00 18 1009.0
20260501233017 90 113 7.0 15.6 0.00 0.00 0.00 18 1009.0
20260501232516 90 82 7.8 16.5 0.00 0.00 0.00 18 1009.1
20260501232016 90 135 9.6 16.5 0.00 0.00 0.00 18 1009.1
20260501231517 91 118 7.8 14.8 0.00 0.00 0.00 18 1009.1
20260501231017 91 45 5.2 13.9 0.00 0.00 0.00 17 1009.2
20260501230517 91 157 7.0 16.5 0.00 0.00 0.00 18 1009.2
20260501230016 91 96 8.7 16.5 0.00 0.00 0.00 17 1009.3
20260501225517 91 108 5.2 12.2 0.00 0.00 0.00 17 1009.4
20260501225017 91 62 3.5 10.4 0.00 0.00 0.00 17 1009.5
20260501224517 91 136 5.2 11.3 0.00 0.00 0.00 18 1009.5
20260501224016 91 111 7.8 15.6 0.00 0.00 0.00 17 1009.6
20260501223516 91 131 7.8 17.4 0.00 0.00 0.00 16 1009.7
20260501223017 91 107 7.0 17.4 0.00 0.00 0.00 16 1009.8
20260501222517 91 128 5.2 12.2 0.00 0.00 0.00 16 1009.9
20260501222017 91 129 5.2 12.2 0.00 0.00 0.00 17 1009.9
20260501221516 91 56 7.8 13.0 0.00 0.00 0.00 16 1010.0
20260501221016 91 133 8.7 14.8 0.00 0.00 0.00 16 1010.0
20260501220516 91 154 6.1 14.8 0.00 0.00 0.00 17 1010.1
20260501220017 91 186 3.5 12.2 0.00 0.00 0.00 17 1010.2
20260501215517 91 161 3.5 9.6 0.00 0.00 0.00 17 1010.3
20260501215017 91 31 3.5 15.6 0.00 0.00 0.00 19 1010.4
20260501214517 91 187 3.5 15.6 0.00 0.00 0.00 19 1010.4
20260501214016 91 93 4.3 12.2 0.00 0.00 0.00 19 1010.5
20260501213517 91 150 3.5 12.2 0.00 0.00 0.00 19 1010.6
20260501213016 91 89 5.2 15.6 0.00 0.00 0.00 20 1010.7
20260501212516 91 116 7.0 15.6 0.00 0.00 0.00 17 1010.7
20260501212017 91 142 3.5 13.0 0.00 0.00 0.00 19 1010.8
20260501211516 91 102 3.5 11.3 0.00 0.00 0.00 19 1010.9
20260501211017 91 155 5.2 11.3 0.00 0.00 0.00 19 1010.9
20260501210517 91 203 7.8 17.4 0.00 0.00 0.00 18 1011.0
20260501210017 91 54 7.0 17.4 0.00 0.00 0.00 18 1011.0
20260501205516 91 82 4.3 11.3 0.00 0.00 0.00 19 1011.1
20260501205017 90 82 4.3 11.3 0.00 0.00 0.00 19 1011.2
20260501204517 91 48 3.5 8.7 0.00 0.00 0.00 19 1011.2
20260501204016 91 99 7.0 13.9 0.00 0.00 0.00 19 1011.2
20260501203517 91 104 8.7 13.9 0.00 0.00 0.00 18 1011.3
20260501203017 90 135 7.0 13.9 0.00 0.00 0.00 18 1011.3
20260501202517 89 116 4.3 11.3 0.00 0.00 0.00 19 1011.4
20260501202016 89 140 5.2 12.2 0.00 0.00 0.00 21 1011.4
20260501201516 89 209 4.3 12.2 0.00 0.00 0.00 19 1011.5
20260501201016 90 223 2.6 7.8 0.00 0.00 0.00 21 1011.5
20260501200516 89 116 1.7 7.0 0.00 0.00 0.00 20 1011.6
20260501200017 89 108 2.6 7.8 0.00 0.00 0.00 19 1011.7
20260501195517 89 59 3.5 7.8 0.00 0.00 0.00 21 1011.7
20260501195017 89 150 3.5 10.4 0.00 0.00 0.00 23 1011.8
20260501194516 89 150 3.5 10.4 0.00 0.00 0.00 24 1011.9
20260501194016 89 126 1.7 7.8 0.00 0.00 0.00 20 1012.0
20260501193517 89 111 1.7 7.8 0.00 0.00 0.00 21 1012.0
20260501193017 89 249 3.5 13.0 0.00 0.00 0.00 20 1012.1
20260501192517 89 77 5.2 15.6 0.00 0.00 0.00 20 1012.2
20260501192017 89 198 6.1 15.6 0.00 0.00 0.00 20 1012.2
20260501191517 89 172 4.3 9.6 0.00 0.00 0.00 20 1012.3
20260501191016 88 129 5.2 12.2 0.00 0.00 0.00 22 1012.4
20260501190017 88 78 4.3 11.3 0.00 0.00 0.00 22 1012.5
20260501185517 88 133 3.5 11.3 0.00 0.00 0.00 21 1012.6
20260501185017 88 128 3.5 11.3 0.00 0.00 0.00 22 1012.6
20260501184516 88 221 5.2 13.9 0.00 0.00 0.00 22 1012.7
20260501184017 88 188 7.0 13.9 0.00 0.00 0.00 21 1012.8
20260501183516 87 119 6.1 13.9 0.00 0.00 0.00 22 1012.9
20260501183016 87 112 4.3 8.7 0.00 0.00 0.00 22 1012.9
20260501182516 87 78 3.5 8.7 0.00 0.00 0.00 22 1013.0
20260501182016 87 252 4.3 8.7 0.00 0.00 0.00 23 1013.1
20260501181517 87 97 5.2 8.7 0.00 0.00 0.00 22 1013.1
20260501181017 87 127 5.2 8.7 0.00 0.00 0.00 22 1013.2
20260501180516 87 96 4.3 12.2 0.00 0.00 0.00 22 1013.2
20260501180017 87 129 3.5 12.2 0.00 0.00 0.00 23 1013.2
20260501175517 87 82 2.6 10.4 0.00 0.00 0.00 24 1013.3
20260501175017 87 81 2.6 10.4 0.00 0.00 0.00 23 1013.3
20260501174517 87 186 2.6 7.0 0.00 0.00 0.00 23 1013.4
20260501174016 87 134 3.5 10.4 0.00 0.00 0.00 23 1013.4
20260501173516 87 94 5.2 12.2 0.00 0.00 0.00 23 1013.4
20260501173017 87 80 5.2 12.2 0.00 0.00 0.00 23 1013.4
20260501172517 87 65 4.3 11.3 0.00 0.00 0.00 22 1013.4
20260501172017 87 133 3.5 8.7 0.00 0.00 0.00 23 1013.4
20260501171517 86 107 2.6 7.8 0.00 0.00 0.00 24 1013.4
20260501171016 86 229 1.7 7.8 0.00 0.00 0.00 24 1013.4
20260501170517 86 196 3.5 10.4 0.00 0.00 0.00 23 1013.4
20260501170017 86 119 4.3 10.4 0.00 0.00 0.00 22 1013.4
20260501165517 85 144 3.5 7.8 0.00 0.00 0.00 25 1013.4
20260501165016 85 124 4.3 7.8 0.00 0.00 0.00 24 1013.4
20260501164517 84 60 6.1 12.2 0.00 0.00 0.00 24 1013.4
20260501164017 84 176 6.1 12.2 0.00 0.00 0.00 25 1013.4
20260501163517 83 71 5.2 12.2 0.00 0.00 0.00 24 1013.4
20260501163017 83 130 5.2 12.2 0.00 0.00 0.00 25 1013.4
20260501162517 82 73 6.1 12.2 0.00 0.00 0.00 26 1013.4